www.pogodaiklimat.ru

Погода и климат >> Архив погоды >> Пакистан >> Джанг


ПОГОДА в Джанге

  • Прогноз погоды в Джанге
  • Монитор погоды в Джанге

АРХИВ ПОГОДЫ в Джанге

Время (UTC), дата Ветер
(напр.,м/с)
 
Видим.   Явления Облачность Т
(С)
Тd
(С)
f
(%)
Тe
(С)
Тes
(С)
Комфортность P
(гПа)
Po
(гПа)
Тmin
(С)
Tmax
(С)
R
(мм)
R24
(мм)
S
(см)
06 14.05 ЮВ 1 10 км ясно +32.5 +16.9 39 +36 +59 опасность
солнечного
удара
1006.9 989.5
12 14.05 штиль 0 10 км ясно +36.0 +16.7 32 +39 +44 очень
душно
1002.5 985.3 +36.5
15 14.05 штиль 0 4000 м мгла ясно +31.5 +17.5 43 +35 +35 очень
душно
1003.9 986.2
18 14.05 штиль 0 4000 м дым 4/0
[Ac trans]
+28.5 +18.5 55 +34 +34 очень
душно
1005.9 988.1
21 14.05 штиль 0 4000 м дым 5/0
[Ac trans]
+27.0 +18.5 60 +32 +32 очень
душно
1005.2 987.4
00 15.05 ЮЗ 2 4000 м дым 8/3 1200 м
[Sc Ac As]
+25.5 +17.6 62 +30 +30 душно 1005.5 987.5
03 15.05 ЮВ 2 4000 м дым 9/3 1200 м
[Sc Ac As]
+26.0 +18.2 62 +31 +32 очень
душно
1007.8 989.8 +25.0
06 15.05 ЮВ 1 4000 м мгла 9/3 1200 м
[Sc Ac As]
+31.0 +17.5 44 +35 +41 очень
душно
1008.5 990.6
09 15.05 СЗ 2 4000 м мгла 6/3 1200 м
[Sc Ac trans]
+34.5 +18.6 39 +39 +48 очень
душно
1006.8 989.4
12 15.05 ЮВ 4 4000 м мгла 8/0
[Ac trans Ci fib]
+33.5 +18.3 41 +38 +40 очень
душно
1004.8 987.4 +35.2
15 15.05 ЮВ 1 4000 м мгла 8/3 1200 м
[Sc Ac As]
+30.0 +16.6 44 +33 +33 душно 1005.9 988.2
18 15.05 ЮВ 3 4000 м дым 9/5 1200 м
[Sc diur, vesp Ac As]
+26.0 +18.2 62 +31 +31 очень
душно
1009.3 991.0
21 15.05 ЮВ 3 4000 м дым 9/5 1200 м
[Sc diur, vesp Ac As]
+24.0 +17.6 67 +28 +28 душно 1008.3 990.1
00 16.05 ЮВ 1 4000 м дым 9/3 1200 м
[Sc Ac As]
+23.0 +17.4 71 +28 +28 душно 1008.4 990.1
03 16.05 штиль 0 4000 м в посл. час дождь 9/5 1200 м
[Sc Ac As]
+23.0 +19.1 79 +29 +31 очень
душно
1010.6 992.3 +21.8 1
06 16.05 штиль 0 10 км ясно +31.5 +16.6 41 +35 +61 опасность
солнечного
удара
1010.1 992.2
09 16.05 СЗ 2 10 км ясно +34.5 +15.6 32 +36 +54 опасность
солнечного
удара
1007.4 990.0
12 16.05 СЗ 1 10 км ясно +34.5 +17.6 37 +38 +43 очень
душно
1006.2 988.8 +35.0
15 16.05 штиль 0 4000 м дым 5/0
[Ac trans]
+30.0 +18.5 50 +35 +35 очень
душно
1006.7 989.0
18 16.05 штиль 0 4000 м дым 9/5 1200 м
[Sc Ac trans]
+28.5 +19.4 58 +34 +34 очень
душно
1008.1 990.3
21 16.05 штиль 0 4000 м дым 9/5 1200 м
[Sc Ac As]
+27.0 +20.2 66 +33 +33 очень
душно
1006.0 988.2
00 17.05 ЮВ 5 4000 м гроза без осадков 10/6 900 м
[Cb cap As op]
+25.0 +18.8 68 +30 +30 душно 1007.0 989.0
03 17.05 СЗ 2 4000 м слаб. дождь {гроза} 10/5 1200 м
[Sc As op]
+21.0 +19.4 91 +26 +27 душно 1008.7 990.4 +20.5 1
06 17.05 С 1 10 км 6/3 1200 м
[Sc Ac As]
+26.0 +19.1 66 +31 +43 очень
душно
1008.3 990.3 0.0
09 17.05 СВ 2 10 км 9/5 1200 м
[Sc Ac As]
+24.0 +21.8 88 +31 +35 очень
душно
1007.6 989.8 1
12 17.05 ЮВ 2 10 км 8/4 1200 м
[Sc Ac As]
+27.0 +21.0 70 +34 +35 очень
душно
1005.6 988.0 +28.2
15 17.05 штиль 0 4000 м дым 4/0
[Ac trans]
+25.0 +21.3 80 +32 +32 очень
душно
1006.0 988.2
18 17.05 ЮВ 1 4000 м дым 3/0
[Ac trans]
+23.0 +19.9 83 +30 +30 очень
душно
1008.1 990.0
21 17.05 штиль 0 4000 м дым 3/0
[Ac trans]
+21.5 +19.1 86 +26 +26 душно 1008.5 990.4
00 18.05 штиль 0 4000 м дым 4/0
[Ac trans]
+21.0 +17.0 78 +25 +25 комфорт 1008.8 990.5
03 18.05 штиль 0 10 км ясно +24.0 +18.5 71 +28 +38 душно 1008.9 990.9 +20.5
06 18.05 ЮВ 1 10 км ясно +31.0 +16.9 43 +35 +58 опасность
солнечного
удара
1010.5 992.8
09 18.05 СЗ 1 10 км ясно +34.0 +15.9 34 +36 +57 опасность
солнечного
удара
1008.8 991.4
12 18.05 СЗ 1 10 км 5/0
[Ac trans]
+34.0 +14.8 32 +36 +39 душно 1006.8 989.4 +35.0
15 18.05 штиль 0 4000 м дым ясно +29.5 +18.8 53 +35 +35 очень
душно
1007.7 990.0
18 18.05 штиль 0 4000 м дым 4/0
[Ac trans]
+26.5 +19.6 66 +32 +32 очень
душно
1009.1 991.1
21 18.05 штиль 0 4000 м дым ясно +24.5 +19.1 72 +29 +29 душно 1008.0 990.0
03 19.05 штиль 0 4000 м дым ясно +27.0 +21.8 73 +35 +44 очень
душно
1007.8 990.0 +21.6
06 19.05 ЮВ 1 10 км ясно +33.5 +19.2 43 +39 +62 опасность
солнечного
удара
1008.2 990.6
09 19.05 З 5 4000 м мгла 3/3 1200 м
[Sc]
+36.0 +17.7 34 +39 +46 очень
душно
1006.4 989.0
12 19.05 СЗ 5 4000 м мгла 9/5 1200 м
[Sc diur, vesp Ac As]
+35.5 +18.0 36 +39 +40 очень
душно
1004.3 987.1 +37.2
15 19.05 СЗ 8 1000 м пыльный позёмок 9/3 1200 м
[Sc Ac As]
+31.0 +16.9 43 +35 +35 очень
душно
1006.6 988.9
18 19.05 ЮЗ 4 4000 м дым {дождь} 8/4 1200 м
[Sc diur, vesp Ac As]
+28.0 +19.6 60 +34 +34 очень
душно
1009.3 991.3 0.0
21 19.05 ЮЗ 2 4000 м дым 8/4 1200 м
[Sc Ac trans]
+25.0 +17.0 61 +29 +29 душно 1009.7 991.5
00 20.05 ЮВ 1 4000 м дым 8/3 1200 м
[Sc Ac trans]
+23.0 +17.4 71 +28 +28 душно 1008.6 990.3
03 20.05 штиль 0 10 км 3/0
[Ac trans]
+26.5 +17.0 56 +30 +38 душно 1011.5 993.3 +21.6
06 20.05 штиль 0 10 км ясно +34.0 +14.8 32 +36 +62 опасность
солнечного
удара
1010.7 993.1
09 20.05 СЗ 2 10 км ясно +37.0 +14.9 27 +38 +56 опасность
солнечного
удара
1008.5 991.1
12 20.05 штиль 0 10 км ясно +38.0 +14.1 24 +38 +44 очень
жарко
1006.3 989.3 +38.6
00 21.05 штиль 0 4000 м дым ясно +22.5 +17.7 74 +28 +28 душно 1006.9 988.8

 

Местоположение метеостанции Джанг (Пакистан): широта 31.27 долгота 72.32 высота над уровнем моря 153 м.

В архиве по умолчанию представлена погода в Джанге за последнюю неделю. Архивные данные за месяц целиком и за предыдущие месяцы, начиная с января 2011 года, Вы можете получить, выбрав интересующий диапазон дат из раскрывающегося списка и нажав кнопку "Ввод!".


*Определитесь, кто Вы:
робот инопланетянин человек

Внимание! Время в таблицах - всемирное. Для получения местного времени необходимо прибавить поправку, которая равна 5 ч.

Смотрите также архив погоды в соседних городах и на ближайших метеорологических станциях:

Погода в Тоба Тек Сингх (Пакистан) (35 км)
Погода на Авиабазе Raifiqui (Пакистан) (56 км)
Погода в Фейсалабаде (Пакистан) (76 км)
Погода в Нур Пур Тал (Пакистан) (78 км)
Погода в Саргодхе (Пакистан) (93 км)
Погода в Саргодхе (Пакистан) (93 км)
Погода в Сахивале (Пакистан) (95 км)
Погода в Ханевале (Пакистан) (115 км)
Погода в Окаре (Пакистан) (118 км)
Погода в Бхаккаре (Пакистан) (125 км)

Пояснения к столбцам:

Ветер - указаны скорость ветра в м/с - средняя за 10 мин, порывы в срок и между сроками (в фигурных скобках) и направление, откуда дует ветер: С - северный, СВ - северо-восточный, В - восточный, ЮВ - юго-восточный, Ю - южный, ЮЗ - юго-западный, З - западный, СЗ - северо-западный.
Видимость - горизонтальная дальность видимости в метрах или километрах. При видимости от 1 до 10 км при отсутствии осадков обычно наблюдается дымка, при ухудшении видимости до 1 км и менее - туман. В сухую погоду видимость может ухудшаться дымом, пылью или мглою.
Явления - указаны атмосферные явления, наблюдавшиеся в срок или в последний час перед сроком; фигурными скобками обозначены явления, наблюдавшиеся между сроками (за 1-3 часа до срока); квадратными скобками обозначены град или гололедные отложения с указанием их диаметра в мм.
Облачность - указаны через наклонную черту общая и нижняя облачность в баллах и высота нижней границы облаков в метрах; квадратными скобками обозначены формы облаков: Ci - перистые, Cs - перисто-слоистые, Cc - перисто-кучевые, Ac - высококучевые, As - высокослоистые, Sc - слоисто-кучевые, Ns - слоисто-дождевые, Cu - кучевые, Cb - кучево-дождевые. Подробнее классификацию облаков см. в Атласе облаков (PDF).
T - Температура воздуха - температура, измеренная на высоте 2 м над землей.
Td - Температура точки росы - температура, при понижении до которой содержащийся в воздухе водяной пар достигнет насыщения.
f - Относительная влажность воздуха - влажноcть воздуха, измеренная на высоте 2 м над землей.
Te - Эффективная температура - температура, которую ощущает одетый по сезону человек в тени. Характеристика душности погоды. При расчете учитывается влияние влажности воздуха и скорости ветра на теплоощущения человека.
Tes - Эффективная температура на солнце - температура, которую ощущает человек, с поправкой на солнечный нагрев. Характеристика знойности погоды. Зависит от высоты солнца над горизонтом, облачности и скорости ветра. Ночью, в пасмурную погоду, а также при ветре 12 м/с и более поправка равна нулю.
P - Атмосферное давление - приведенное к уровню моря атмосферное давление.
Po - Атмосферное давление - измеренное на уровне метеостанции атмосферное давление.
Tmin - Минимальная температура - минимум температуры воздуха на высоте 2 м над землей.
Tmax - Максимальная температура - максимум температуры воздуха на высоте 2 м над землей.
R - Количество осадков - Количество выпавших осадков за период времени, мм. При наведении курсора мыши на число - период времени, за который выпало указанное количество осадков.
R24 - Количество осадков - Количество выпавших осадков за 24 часа, мм.
S - Снежный покров - Высота снежного покрова, см. При наведении курсора мыши на число - состояние снежного покрова и степень покрытия местности в баллах.